Orbital Elements at Epoch 2459000.5 (2020-May-31.0) TDB
Reference: JPL 17 (heliocentric ecliptic J2000)
Element | Value | Uncertainty (1-sigma) | Units |
e | .2754346204642988 | 1.0936e-07 | |
a | 2.586394189309144 | 2.9138e-08 | au |
q | 1.874011687405712 | 3.004e-07 | au |
i | 3.374065257940868 | 3.8777e-06 | deg |
node | 314.2150375474336 | 0.00010166 | deg |
peri | 84.69736225978866 | 0.00010231 | deg |
M | 127.3623543618369 | 1.2388e-05 | deg |
tp | 2458462.999245034553 (2018-Dec-10.49924503) | 4.5201e-05 | TDB |
period | 1519.289375240551 4.16 | 2.5674e-05 7.029e-08 | d yr |
n | .2369528845964586 | 4.0042e-09 | deg/d |
Q | 3.298776691212575 | 3.7164e-08 | au |
|
| | Orbit Determination Parameters
Additional Information
|